Terminal Aerodrome Forecast
Issued by NWS Billings, MT

Home | Current Version | Previous Version | Text Only | Print | Product List | Glossary On
Versions: 1 2 3 4 5 6 7 8 9 10 11 12 13 14 15 16 17 18
000
FTUS45 KBYZ 090901 AAA
TAFBIL
TAF AMD
KBIL 090901Z 0909/1006 03008KT 6SM -SN SCT025 OVC035
      TEMPO 0909/0911 2SM -SN BR BKN025
     FM091300 06007KT 3SM -SN SCT010 OVC020
     FM091900 07009KT P6SM OVC050=

USA.gov is the U.S. government's official web portal to all federal, state and local government web resources and services.